TimeEST,TemperatureF,Dew PointF,Humidity,Sea Level PressureIn,VisibilityMPH,Wind Direction,Wind SpeedMPH,Gust SpeedMPH,PrecipitationIn,Events,Conditions,WindDirDegrees,DateUTC
12:14 AM,30.7,26.6,85,29.95,4.0,NW,11.5,17.3,N/A,Snow,Light Snow,310,2013-02-06 05:14:00
12:35 AM,30.0,26.2,86,29.97,2.5,NW,8.1,-,N/A,Snow,Light Snow,310,2013-02-06 05:35:00
12:54 AM,29.8,25.9,85,29.97,4.0,NW,8.1,-,N/A,Snow,Light Snow,310,2013-02-06 05:54:00
1:14 AM,29.5,25.0,83,29.99,5.0,NW,11.5,-,N/A,Snow,Light Snow,320,2013-02-06 06:14:00
1:35 AM,27.9,22.3,80,30.01,7.0,NNW,11.5,17.3,N/A,Snow,Light Snow,340,2013-02-06 06:35:00
1:54 AM,27.3,22.1,81,30.03,5.0,NNW,10.4,-,N/A,Snow,Light Snow,340,2013-02-06 06:54:00
2:14 AM,26.6,21.6,81,30.04,5.0,North,8.1,-,N/A,Snow,Light Snow,350,2013-02-06 07:14:00
2:34 AM,26.4,20.3,78,30.05,10.0,NW,4.6,-,N/A,Snow,Light Snow,320,2013-02-06 07:34:00
2:54 AM,25.5,18.0,73,30.07,10.0,NNW,4.6,-,N/A,,Mostly Cloudy,330,2013-02-06 07:54:00
3:14 AM,24.4,17.4,75,30.09,10.0,NW,5.8,-,N/A,,Scattered Clouds,310,2013-02-06 08:14:00
3:34 AM,23.0,16.9,77,30.09,10.0,NW,3.5,-,N/A,,Clear,320,2013-02-06 08:34:00
3:55 AM,22.8,16.3,76,30.09,10.0,NW,3.5,-,N/A,,Clear,310,2013-02-06 08:55:00
4:14 AM,22.8,16.3,76,30.10,10.0,WNW,3.5,-,N/A,,Clear,290,2013-02-06 09:14:00
4:34 AM,21.9,16.0,78,30.11,10.0,West,3.5,-,N/A,,Clear,280,2013-02-06 09:34:00
4:55 AM,21.2,15.1,77,30.13,10.0,WSW,3.5,-,N/A,,Clear,250,2013-02-06 09:55:00
5:14 AM,20.8,15.4,80,30.14,10.0,West,3.5,-,N/A,,Clear,280,2013-02-06 10:14:00
5:34 AM,20.3,15.6,82,30.15,10.0,West,3.5,-,N/A,,Clear,270,2013-02-06 10:34:00
5:55 AM,20.5,15.6,81,30.16,10.0,West,3.5,-,N/A,,Clear,280,2013-02-06 10:55:00
6:14 AM,20.7,15.8,81,30.17,10.0,WNW,6.9,-,N/A,,Clear,290,2013-02-06 11:14:00
6:35 AM,20.3,15.6,82,30.18,10.0,WNW,6.9,-,N/A,,Clear,300,2013-02-06 11:35:00
6:54 AM,20.3,15.4,81,30.18,10.0,WNW,5.8,-,N/A,,Clear,300,2013-02-06 11:54:00
7:14 AM,20.1,15.4,82,30.19,10.0,WNW,4.6,-,N/A,,Clear,300,2013-02-06 12:14:00
7:35 AM,19.8,15.1,82,30.21,10.0,WNW,4.6,-,N/A,,Clear,300,2013-02-06 12:35:00
7:54 AM,20.1,15.3,81,30.21,10.0,WNW,4.6,-,N/A,,Clear,300,2013-02-06 12:54:00
8:34 AM,21.0,15.4,79,30.24,10.0,West,3.5,-,N/A,,Clear,280,2013-02-06 13:34:00
8:54 AM,21.9,15.8,77,30.25,10.0,West,4.6,-,N/A,,Clear,270,2013-02-06 13:54:00
9:15 AM,22.5,15.8,76,30.25,10.0,NW,4.6,-,N/A,,Clear,310,2013-02-06 14:15:00
9:34 AM,23.2,16.0,74,30.26,10.0,NNW,3.5,-,N/A,,Clear,340,2013-02-06 14:34:00
9:54 AM,24.3,15.6,70,30.27,10.0,Calm,Calm,-,N/A,,Clear,0,2013-02-06 14:54:00
10:14 AM,25.2,15.1,66,30.27,10.0,Calm,Calm,-,N/A,,Clear,0,2013-02-06 15:14:00
10:34 AM,26.4,15.1,62,30.27,10.0,Calm,Calm,-,N/A,,Clear,0,2013-02-06 15:34:00
10:54 AM,26.6,14.7,61,30.28,10.0,Calm,Calm,-,N/A,,Clear,0,2013-02-06 15:54:00
11:14 AM,28.2,15.1,58,30.27,10.0,Calm,Calm,-,N/A,,Clear,0,2013-02-06 16:14:00
11:35 AM,29.3,15.1,55,30.27,10.0,Calm,Calm,-,N/A,,Clear,0,2013-02-06 16:35:00
11:54 AM,30.9,14.9,52,30.28,10.0,SW,3.5,-,N/A,,Clear,230,2013-02-06 16:54:00
12:14 PM,31.1,14.5,50,30.27,10.0,Calm,Calm,-,N/A,,Clear,0,2013-02-06 17:14:00
12:35 PM,31.6,14.7,50,30.27,10.0,SW,4.6,-,N/A,,Clear,230,2013-02-06 17:35:00
12:54 PM,32.5,15.3,49,30.27,10.0,Calm,Calm,-,N/A,,Clear,0,2013-02-06 17:54:00
1:15 PM,32.9,15.3,48,30.27,10.0,West,4.6,-,N/A,,Clear,270,2013-02-06 18:15:00
1:35 PM,33.3,15.8,49,30.28,10.0,WSW,4.6,-,N/A,,Clear,240,2013-02-06 18:35:00
1:54 PM,33.3,15.3,48,30.27,10.0,South,6.9,-,N/A,,Clear,190,2013-02-06 18:54:00
2:15 PM,33.1,14.7,47,30.27,10.0,NNW,4.6,-,N/A,,Clear,330,2013-02-06 19:15:00
2:34 PM,33.8,14.7,46,30.27,10.0,WSW,4.6,-,N/A,,Clear,250,2013-02-06 19:34:00
2:54 PM,34.3,14.5,44,30.26,10.0,Calm,Calm,-,N/A,,Clear,0,2013-02-06 19:54:00
3:15 PM,34.7,13.8,42,30.27,10.0,South,6.9,-,N/A,,Clear,190,2013-02-06 20:15:00
3:34 PM,34.7,13.5,42,30.27,10.0,SSW,5.8,-,N/A,,Clear,210,2013-02-06 20:34:00
3:54 PM,34.2,12.9,42,30.26,10.0,Calm,Calm,-,N/A,,Clear,0,2013-02-06 20:54:00
4:15 PM,34.7,14.0,43,30.25,10.0,South,6.9,-,N/A,,Clear,170,2013-02-06 21:15:00
4:34 PM,34.0,14.0,44,30.24,10.0,SSE,4.6,-,N/A,,Clear,160,2013-02-06 21:34:00
4:54 PM,33.6,17.2,51,30.25,10.0,ESE,3.5,-,N/A,,Clear,110,2013-02-06 21:54:00
5:15 PM,32.0,18.7,58,30.26,10.0,ESE,5.8,-,N/A,,Clear,110,2013-02-06 22:15:00
5:34 PM,32.0,18.9,58,30.28,10.0,South,3.5,-,N/A,,Clear,170,2013-02-06 22:34:00
5:55 PM,31.5,18.7,59,30.29,10.0,South,9.2,-,N/A,,Clear,190,2013-02-06 22:55:00
6:15 PM,30.4,18.5,61,30.30,10.0,South,6.9,-,N/A,,Clear,170,2013-02-06 23:15:00
6:34 PM,29.7,18.5,63,30.30,10.0,South,5.8,-,N/A,,Clear,170,2013-02-06 23:34:00
6:55 PM,29.3,18.5,64,30.31,10.0,South,6.9,-,N/A,,Clear,170,2013-02-06 23:55:00
7:14 PM,29.7,18.1,62,30.31,10.0,South,8.1,-,N/A,,Clear,190,2013-02-07 00:14:00
7:34 PM,29.3,17.8,62,30.31,10.0,South,6.9,-,N/A,,Clear,190,2013-02-07 00:34:00
7:55 PM,28.9,17.2,62,30.31,10.0,South,5.8,-,N/A,,Clear,190,2013-02-07 00:55:00
8:14 PM,28.8,16.9,61,30.31,10.0,South,9.2,-,N/A,,Clear,190,2013-02-07 01:14:00
8:35 PM,28.4,16.7,62,30.30,10.0,South,6.9,-,N/A,,Scattered Clouds,190,2013-02-07 01:35:00
8:54 PM,28.0,17.2,64,30.30,10.0,South,3.5,-,N/A,,Mostly Cloudy,170,2013-02-07 01:54:00
9:15 PM,27.9,17.8,66,30.30,10.0,SSE,4.6,-,N/A,,Overcast,160,2013-02-07 02:15:00
9:35 PM,27.3,17.6,67,30.28,10.0,SSE,5.8,-,N/A,,Mostly Cloudy,160,2013-02-07 02:35:00
9:54 PM,26.6,17.2,68,30.29,10.0,SSE,5.8,-,N/A,,Scattered Clouds,160,2013-02-07 02:54:00
10:15 PM,26.6,17.4,68,30.28,10.0,South,4.6,-,N/A,,Scattered Clouds,180,2013-02-07 03:15:00
10:34 PM,27.1,17.8,68,30.27,10.0,SSE,3.5,-,N/A,,Overcast,160,2013-02-07 03:34:00
10:55 PM,27.3,17.8,67,30.26,10.0,Calm,Calm,-,N/A,,Overcast,0,2013-02-07 03:55:00
11:15 PM,27.5,17.6,66,30.26,10.0,Calm,Calm,-,N/A,,Overcast,0,2013-02-07 04:15:00
11:34 PM,28.0,17.8,65,30.27,10.0,Calm,Calm,-,N/A,,Overcast,0,2013-02-07 04:34:00
11:55 PM,28.2,18.0,65,30.27,10.0,Calm,Calm,-,N/A,,Overcast,0,2013-02-07 04:55:00